TimeCDT,TemperatureF,Dew PointF,Humidity,Sea Level PressureIn,VisibilityMPH,Wind Direction,Wind SpeedMPH,Gust SpeedMPH,PrecipitationIn,Events,Conditions,WindDirDegrees,DateUTC
12:56 AM,82.9,68.0,60,30.09,10.0,ESE,4.6,-,N/A,,Clear,120,2013-09-16 05:56:00
1:56 AM,81.0,68.0,65,30.09,10.0,SE,6.9,-,N/A,,Clear,140,2013-09-16 06:56:00
2:56 AM,79.0,69.1,72,30.09,10.0,Calm,Calm,-,N/A,,Clear,0,2013-09-16 07:56:00
3:56 AM,78.1,69.1,74,30.09,10.0,Calm,Calm,-,N/A,,Clear,0,2013-09-16 08:56:00
4:56 AM,77.0,70.0,79,30.10,10.0,ESE,3.5,-,N/A,,Clear,120,2013-09-16 09:56:00
5:56 AM,75.9,70.0,82,30.11,10.0,Calm,Calm,-,N/A,,Clear,0,2013-09-16 10:56:00
6:56 AM,75.9,70.0,82,30.12,10.0,Calm,Calm,-,N/A,,Scattered Clouds,0,2013-09-16 11:56:00
7:56 AM,75.0,70.0,84,30.14,10.0,Calm,Calm,-,N/A,,Clear,0,2013-09-16 12:56:00
8:43 AM,78.8,71.6,78,30.09,10.0,Calm,Calm,-,N/A,,Mostly Cloudy,0,2013-09-16 13:43:00
8:56 AM,80.1,71.1,74,30.15,10.0,Calm,Calm,-,N/A,,Scattered Clouds,0,2013-09-16 13:56:00
9:56 AM,82.9,73.0,72,30.15,10.0,ESE,5.8,-,N/A,,Partly Cloudy,110,2013-09-16 14:56:00
10:56 AM,86.0,71.1,61,30.16,10.0,NNE,6.9,-,N/A,,Partly Cloudy,30,2013-09-16 15:56:00
11:56 AM,88.0,66.9,49,30.15,10.0,ESE,8.1,-,N/A,,Scattered Clouds,110,2013-09-16 16:56:00
12:56 PM,90.0,68.0,48,30.14,10.0,ESE,8.1,-,N/A,,Clear,110,2013-09-16 17:56:00
1:56 PM,90.0,66.0,45,30.12,10.0,SE,11.5,-,N/A,,Clear,130,2013-09-16 18:56:00
2:56 PM,90.0,63.0,40,30.09,10.0,Variable,6.9,16.1,N/A,,Clear,0,2013-09-16 19:56:00
3:56 PM,91.0,64.9,42,30.07,10.0,NE,8.1,-,N/A,,Clear,50,2013-09-16 20:56:00
4:56 PM,91.0,63.0,39,30.05,10.0,East,9.2,-,N/A,,Clear,80,2013-09-16 21:56:00
5:56 PM,91.0,61.0,36,30.05,10.0,East,10.4,-,N/A,,Clear,80,2013-09-16 22:56:00
6:56 PM,90.0,55.9,31,30.05,10.0,ENE,5.8,-,N/A,,Clear,70,2013-09-16 23:56:00
7:56 PM,88.0,57.9,36,30.07,10.0,East,3.5,-,N/A,,Clear,80,2013-09-17 00:56:00
8:56 PM,86.0,59.0,40,30.09,10.0,Calm,Calm,-,N/A,,Overcast,0,2013-09-17 01:56:00
9:56 PM,84.0,68.0,58,30.12,10.0,South,8.1,-,N/A,,Clear,180,2013-09-17 02:56:00
10:56 PM,82.0,70.0,67,30.12,10.0,South,8.1,-,N/A,,Clear,170,2013-09-17 03:56:00
11:56 PM,80.1,71.1,74,30.13,10.0,SSE,4.6,-,N/A,,Clear,160,2013-09-17 04:56:00